Weather in Springfield

United States     42°06′07″N   72°35′24″W
temp.,
°C
wind,
m/s
gust,
m/s
humid.,
%
clouds,
%
prec.,
mm/h
press.,
hPa
HPBL,
m
26 may, thu
thu2623:00+10s3973100 0.0 1028262
02:00+8sse2577100 0.0 1028119
05:00+8sse2382100 0.0 102766
08:00+12s3665100 0.0 1027425
11:00+19s4740100 0.0 10251160
14:00+21s6835100 0.0 10231433
17:00+20s684860 0.0 10211294
20:00+16s5107367 0.0 1020716
27 may, fri
fri2723:00+14s4129055 0.0 1020515
02:00+16ssw41386100 0.0 1018603
05:00+17ssw41394100 0.1 1016607
08:00+18s41396100 0.2 1016581
11:00+22ssw597597 0.1 1015971
14:00+24ssw5969100 0.1 10121230
17:00+23ssw5980100 0.6 1011937
20:00+19s4998100 4.1 1012395
28 may, sat
sat2823:00+18s41299100 0.1 1011974
02:00+18ssw41398100 0.5 1009771
05:00+17s31299100 0.1 1008605
08:00+17s41198100 0.5 1007776
11:00+18s3797100 0.1 1007459
14:00+22s4770100 0.2 10061041
17:00+26sw364868 0.4 10042221
20:00+18wnw13933 2.3 100787
29 may, sun
sun2923:00+15nnw23955 0.0 100955
02:00+14n12975 0.0 101124
05:00+12n22975 0.0 101338
08:00+16nnw258499 0.0 1015268
11:00+22n34365 0.0 10161422
14:00+26nnw232837 0.0 10151806
17:00+26sse13295 0.0 10152078
20:00+19ssw116311 0.0 101611
30 may, mon
mon3023:00+16s226870 0.0 101814
02:00+15s2277100 0.0 101820
05:00+14s2282100 0.0 101823
08:00+20wsw2464100 0.0 1019274
11:00+26wsw2548100 0.0 1017919
14:00+31w463534 0.0 10142024
17:00+29sw365095 0.0 1013478
20:00+25w1166100 0.0 101311